Home   Weather   Nãgpur   Past weeks

Flag for India Past Weather in Nãgpur, Maharashtra, India — Yesterday and Last 2 Weeks

Now
59 °F

Fog.


Feels Like: 59 °F
Forecast: 58 / 84 °F
Wind: No wind

Location: Nagpur Sonegaon

Current Time: Dec 4, 2016 at 7:29:24 am

Latest Report: Dec 4, 2016 at 6:30 am


Visibility: 1 mi

Pressure: 30.09 "Hg

Humidity: 88%

Dew Point: 55 °F

Location of NãgpurLocation

Past Weather in Nãgpur — Graph

°F

Nãgpur Temperature Yesterday

Maximum temperature yesterday: 86 °F (at 2:30 pm)
Minimum temperature yesterday: 59 °F (at 6:30 am)
Average temperature yesterday: 73 °F

High & Low Weather Summary for the Past Weeks

 TemperatureHumidityPressure
High90 °F (Nov 27, 1:30 pm)100% (Nov 24, 4:00 am)30.12 "Hg (Nov 24, 4:00 am)
Low54 °F (Nov 26, 4:00 am)22% (Nov 27, 2:30 pm)29.89 "Hg (Nov 19, 2:00 pm)
Average72 °F59%29.98 "Hg
* Reported Nov 19 6:00 am — Dec 4 5:30 am, Nãgpur, Weather by CustomWeather, © 2016

Note: Actual official high and low records may vary slightly from our data, if they occured in-between our weather recording intervals... More about our weather records

Advertising

Nãgpur Weather History for the Previous 24 Hours

Scroll right to see more
 ConditionsComfort  
Time TempWeatherWind HumidityBarometerVisibility
5:30 am
Sun, Dec 4
55 °FHaze.No wind94%30.09 "Hg1 mi
4:00 am61 °FHaze.No wind88%30.09 "Hg2 mi
3:00 am61 °FHaze.No wind88%30.07 "Hg2 mi
2:00 am61 °FHaze.No wind94%30.07 "Hg2 mi
1:30 am61 °FHaze.No wind94%30.07 "Hg2 mi
1:00 am63 °FHaze.No wind88%30.09 "Hg2 mi
12:30 am63 °FHaze.No wind88%30.09 "Hg2 mi
11:30 pm
Sat, Dec 3
63 °FHaze.No wind88%30.09 "Hg2 mi
11:00 pm59 °FHaze.No wind94%30.09 "Hg2 mi
10:30 pm61 °FHaze.No wind88%30.09 "Hg2 mi
10:00 pm61 °FHaze.No wind94%30.09 "Hg2 mi
9:30 pm64 °FHaze.No wind83%30.09 "Hg2 mi
9:00 pm66 °FHaze.No wind78%30.09 "Hg2 mi
8:30 pm73 °FHaze.No wind57%30.07 "Hg2 mi
8:00 pm73 °FHaze.No wind57%30.07 "Hg2 mi
7:30 pm75 °FHaze.No wind54%30.07 "Hg1 mi
6:30 pm79 °FHaze.2 mph54%30.04 "Hg1 mi
6:00 pm79 °FHaze.2 mph54%30.04 "Hg1 mi
5:30 pm81 °FHaze.2 mph51%30.01 "Hg1 mi
5:00 pm82 °FHaze.2 mph48%30.01 "Hg1 mi
4:30 pm84 °FHaze.2 mph45%30.01 "Hg2 mi
3:30 pm84 °FHaze.3 mph45%29.98 "Hg2 mi
2:30 pm86 °FHaze.5 mph40%30.01 "Hg1 mi
1:30 pm84 °FHaze.7 mph43%30.01 "Hg1 mi
12:30 pm84 °FHaze.6 mph43%30.07 "Hg1 mi
12:00 pm82 °FHaze.7 mph48%30.07 "Hg1 mi
11:30 am81 °FHaze.8 mph51%30.09 "Hg1 mi
10:30 am79 °FHaze.5 mph51%30.12 "Hg1 mi
10:00 am77 °FHaze.5 mph54%30.12 "Hg1 mi
8:30 am70 °FFog.2 mph69%30.12 "Hg1 mi
8:00 am68 °FFog.No wind73%30.09 "Hg1 mi
7:30 am64 °FFog.No wind73%30.09 "Hg1 mi
Weather by CustomWeather, © 2016

See weather overviewHow to use our weather pages